Location: Archemont
(49.1579°N, 1.7598°E)
Time: 10:34:41
(UTC+00:00)

Altair - Pass Details

Date: 22 April 2024
Orbit: 1501 x 1682 km, 47.2° (Epoch: 17 May)

Event Time Altitude Azimuth Distance (km) Brightness Sun altitude
Rises 16:35:33 0° 197° (SSW) 4,921 10.5 21.8°
Reaches altitude 10° 16:39:21 10° 186° (S) 3,931 9.9 21.2°
Maximum altitude 16:47:15 27° 134° (SE) 2,791 8.7 19.9°
Drops below altitude 10° 16:55:01 10° 81° (E) 3,872 9.1 18.6°
Sets 16:58:43 0° 71° (ENE) 4,835 9.5 18.0°
